Regional Weather Roundup
Issued by NWS Northern Indiana

Home | Current Version | Previous Version | Text Only | Print | Product List | Glossary Off
Versions: 1 2 3 4 5 6 7 8 9 10 11 12 13 14 15 16 17 18 19 20 21 22 23 24 25 26 27 28 29 30 31 32 33 34 35 36 37 38 39 40 41 42 43 44 45 46 47 48 49 50

000
ASUS43 KIWX 031200
RWRIWX

KIWX WEATHER ROUNDUP
NATIONAL WEATHER SERVICE NORTHERN INDIANA
800 AM EDT SUN MAY 03 2015

NOTE: "FAIR" INDICATES FEW OR NO CLOUDS BELOW 12,000 FEET WITH NO
SIGNIFICANT WEATHER AND/OR OBSTRUCTIONS TO VISIBILITY.

* THESE STATIONS ARE NOT UNDER NWS QUALITY CONTROL. THEY ALSO MAY NOT
  REPORT WEATHER SUCH AS PRECIPITATION OR FOG.

INZ001>027-031300-
NORTHERN INDIANA

CITY           SKY/WX    TMP DP  RH WIND       PRES   REMARKS
GARY*          PTSUNNY   61 N/A N/A S7        30.01S
SOUTH BEND     SUNNY     58  40  51 SW7       30.05R
6HR MIN TEMP:  54; 6HR MAX TEMP:  59;

GOSHEN         MOSUNNY   57  43  59 S8        30.05R
6HR MIN TEMP:  50; 6HR MAX TEMP:  57;

ANGOLA*        SUNNY     52  46  82 CALM      30.07R
FORT WAYNE     PTSUNNY   53  46  77 S7        30.09R
6HR MIN TEMP:  48; 6HR MAX TEMP:  54;

PERU/GRISSOM   PTSUNNY   56  46  70 S8        30.06R
6HR MIN TEMP:  51; 6HR MAX TEMP:  56;


$$
INZ028>050-031300-
CENTRAL INDIANA

CITY           SKY/WX    TMP DP  RH WIND       PRES   REMARKS
LAFAYETTE      CLOUDY    54  50  86 CALM      30.06R
6HR MIN TEMP:  50; 6HR MAX TEMP:  56; 6HR PCP: TRACE;

MUNCIE*        PTSUNNY   58  44  60 S3        30.10R
6HR MIN TEMP:  55; 6HR MAX TEMP:  58;

INDIANAPOLIS   CLOUDY    56  47  71 SE5       30.07R
6HR MIN TEMP:  53; 6HR MAX TEMP:  60; 6HR PCP: TRACE;


$$
MIZ043>046-050>051-056>058-064>065-071>073-077>080-031300-
SOUTHWEST LOWER MICHIGAN

CITY           SKY/WX    TMP DP  RH WIND       PRES   REMARKS
BATTLE CREEK   SUNNY     56  42  59 SW7       30.05R
6HR MIN TEMP:  49; 6HR MAX TEMP:  57;

BENTON HARBOR  CLOUDY    57  41  55 S6        30.02R
6HR MIN TEMP:  52; 6HR MAX TEMP:  58;

COLDWATER*     SUNNY     57  41  55 SW7       30.06R
6HR MIN TEMP:  52; 6HR MAX TEMP:  57;

HILLSDALE*     MOSUNNY   60  41  51 SW3       30.06R
6HR MIN TEMP:  57; 6HR MAX TEMP:  60;

HOLLAND        MOSUNNY   62  42  47 SW12      30.01R
6HR MIN TEMP:  53; 6HR MAX TEMP:  62;

GRAND RAPIDS   MOSUNNY   58  40  51 S9        30.01R
6HR MIN TEMP:  49; 6HR MAX TEMP:  58;

KALAMAZOO      SUNNY     56  43  61 S6        30.05R
6HR MIN TEMP:  49; 6HR MAX TEMP:  56;

STURGIS*       SUNNY     54  45  71 CALM      30.05R
THREE RIVERS*  FAIR      54  44  68 S3        30.05R

$$
OHZ001>008-015>018-024>025-031300-
NORTHWEST OHIO

CITY           SKY/WX    TMP DP  RH WIND       PRES   REMARKS
DEFIANCE       MOSUNNY   55  46  71 S5        30.08R
6HR MIN TEMP:  49; 6HR MAX TEMP:  55;

FINDLAY        MOSUNNY   56  46  69 S6        30.08R
6HR MIN TEMP:  50; 6HR MAX TEMP:  56;

TOLEDO EXPRESS SUNNY     54  46  74 CALM      30.07R
6HR MIN TEMP:  44; 6HR MAX TEMP:  54;

TOLEDO METCALF SUNNY     56  43  61 SW8       30.08R
6HR MIN TEMP:  51; 6HR MAX TEMP:  56;

LIMA           PTSUNNY   54  44  69 S9        30.09R
6HR MIN TEMP:  50; 6HR MAX TEMP:  54;


$$
AND FOR LAKE MICHIGAN COASTAL AND OPEN LAKE BUOY OBSERVATIONS

STATION/POSITION TEMP    WIND        PRES    VSBY  WAVE
                 AIR SEA DIR/SP/G                  HT/PER
                 (F)     (DEG/KT/KT) (MB)    (MI)  (FT/S)
CALUMET HARBOR    61     190/  5/  8   N/A
MICHIGAN CITY     60     160/ 11/ 16   N/A
BURNS HARBOR      61     190/ 12/ 16 1016.6S
SAINT JOSEPH      60     150/  5/ 14 1016.9R
4 MI NW BRIDGMAN  54 48  220/  6/  8   N/A           1
MICHIGAN CITY     56 50  200/  8/ 10   N/A           1

$$
&&


USA.gov is the U.S. government's official web portal to all federal, state and local government web resources and services.